[[{"header":{"parameterUnit":"m.s-1","parameterCategory":1,"la1":30.2991,"la2":30.254,"lo1":-89.0895,"lo2":-89.0444,"dy":0.0017,"dx":0.0017,"nx":28,"ny":28,"refTime":"2023-10-07T03:00:00:Z","depth":0,"parameterNumber":2,"parameterNumberName":"U-component_of_WINDS"},"data":[0,0,0,0,0,0,0,0,0,0,0,0,0,0,0,0,0,0,0,0,0,0,0,0,0,0,0,0,0,0,0,0,0,0,0,0,0,0,0,0,0,0,0,0,0,0,0,0,0,0,0,0,0,0,0,0,0,0,-1.0535,-1.0535,0,-1.0564,-1.0564,-1.0564,-1.0546,-1.0545,-1.0544,-1.0543,-1.0573,-1.0575,-1.0576,0,0,0,0,0,0,0,0,0,0,0,0,0,-1.0462,-1.0463,-1.0535,-1.0535,-1.0535,-1.0564,-1.0564,-1.0565,-1.0546,-1.0545,-1.0544,-1.0543,-1.0573,-1.0574,-1.0576,0,0,0,0,0,0,0,0,0,0,0,0,0,-1.0492,-1.0464,-1.0535,-1.053,-1.0529,-1.0564,-1.0564,-1.0565,-1.0546,-1.0545,-1.0544,-1.0543,-1.0572,-1.0574,-1.0577,-1.0617,0,0,-1.0584,-1.0585,0,0,0,0,0,0,0,0,-1.0491,-1.0495,-1.053,-1.053,-1.053,-1.055,-1.0549,-1.0582,-1.0547,-1.054,-1.0543,-1.0542,-1.0566,-1.0569,-1.0578,-1.0619,-1.062,-1.0584,-1.0586,-1.0587,-1.0587,0,0,0,0,0,0,0,-1.0489,-1.0494,-1.0546,-1.053,-1.053,-1.0525,-1.0528,-1.0555,-1.056,-1.054,-1.0539,-1.0543,-1.0566,-1.0575,-1.0578,-1.062,-1.0584,-1.0586,-1.0588,-1.0589,-1.0695,-1.0696,0,0,0,0,0,0,-1.0487,-1.0492,-1.0545,-1.0547,-1.0507,-1.0528,-1.0531,-1.0545,-1.056,-1.0561,-1.0544,-1.0542,-1.0572,-1.0575,-1.0579,-1.0627,-1.0587,-1.0589,-1.059,-1.0693,-1.0695,-1.0697,0,0,0,0,0,0,-1.0486,-1.0492,-1.0544,-1.0519,-1.0525,-1.053,-1.0546,-1.0546,-1.0555,-1.0562,-1.0563,-1.0552,-1.0571,-1.0576,-1.0608,-1.0628,-1.059,-1.0592,-1.0692,-1.0694,-1.0696,-1.0723,0,0,0,0,0,0,-1.0484,-1.0492,-1.0508,-1.052,-1.0527,-1.0573,-1.0547,-1.0548,-1.0559,-1.0557,-1.0571,-1.0572,-1.057,-1.0604,-1.061,-1.063,-1.0594,-1.069,-1.0693,-1.0695,-1.072,-1.0726,-1.073,0,0,0,0,0,-1.0481,-1.0514,-1.0508,-1.0515,-1.0547,-1.0574,-1.0578,-1.0576,-1.0561,-1.0577,-1.0581,-1.0571,-1.0624,-1.0608,-1.0614,-1.0635,-1.0689,-1.0692,-1.0695,-1.0718,-1.0725,-1.073,0,0,0,0,0,0,-1.0505,-1.0516,-1.051,-1.0548,-1.056,-1.0571,-1.0591,-1.0583,-1.06,-1.0597,-1.0593,-1.0596,-1.063,-1.0636,-1.0617,-1.0674,-1.0654,-1.0659,-1.067,-1.0676,-1.0681,-1.0679,-1.0596,0,0,0,0,0,-1.0514,-1.0536,-1.0544,-1.0577,-1.0583,-1.0586,-1.0598,-1.0595,-1.0607,-1.0612,-1.0619,-1.0631,-1.0651,-1.0664,-1.0682,-1.0721,-1.0723,-1.0739,-1.0744,-1.0748,-1.0752,-1.0771,-1.0778,-1.0707,-1.0707,-1.0707,0,0,-1.0535,-1.0543,-1.0557,-1.0582,-1.0591,-1.0613,-1.0591,-1.0615,-1.063,-1.0616,-1.0646,-1.0652,-1.0665,-1.07,-1.0716,-1.0706,-1.0772,-1.0752,-1.0755,-1.0757,-1.0775,-1.0782,-1.0788,-1.0709,-1.0708,-1.0708,0,0,-1.0583,-1.0592,-1.062,-1.0629,-1.0643,-1.0644,-1.065,-1.0662,-1.0665,-1.0695,-1.0684,-1.0703,-1.0736,-1.0746,-1.0755,-1.0805,-1.0796,-1.0811,-1.0837,-1.0856,-1.0862,-1.0867,-1.0884,-1.089,-1.0815,-1.0815,-1.0815,0,-1.0607,-1.0639,-1.0635,-1.0659,-1.067,-1.0658,-1.0685,-1.0694,-1.0713,-1.0721,-1.0709,-1.075,-1.0759,-1.0795,-1.0807,-1.0815,-1.0822,-1.0809,-1.0862,-1.0867,-1.0871,-1.0887,-1.0894,-1.0816,-1.0816,-1.0816,-1.0816,0,-1.0667,-1.0689,-1.071,-1.0728,-1.0741,-1.0767,-1.0766,-1.078,-1.0775,-1.0778,-1.0808,-1.0817,-1.0836,-1.0845,-1.0841,-1.0881,-1.0874,-1.0862,-1.0842,-1.088,-1.0895,-1.0901,-1.0819,-1.0818,-1.0818,-1.0817,0,0,-1.0732,-1.0746,-1.0754,-1.0761,-1.0775,-1.0792,-1.0816,-1.0835,-1.0846,-1.0859,-1.0879,-1.0907,-1.0896,-1.0907,-1.0903,-1.092,-1.0958,-1.0906,-1.0907,-1.0915,-1.1001,-1.101,-1.1017,-1.0952,-1.0953,-1.0954,-1.1,0,-1.078,-1.0824,-1.082,-1.0861,-1.0881,-1.0868,-1.0889,-1.09,-1.0902,-1.0919,-1.0921,-1.094,-1.0924,-1.093,-1.0947,-1.095,-1.0975,-1.0947,-1.097,-1.0971,-1.0967,-1.1025,-1.1035,-1.1078,-1.1006,-1.1007,-1.1007,0,-1.0843,-1.0857,-1.09,-1.0909,-1.0917,-1.0936,-1.0952,-1.0969,-1.0979,-1.0979,-1.099,-1.0984,-1.1008,-1.0986,-1.1019,-1.1,-1.1009,-1.1012,-1.1013,-1.1015,-1.0992,-1.1028,-1.1091,-1.1098,-1.1017,-1.1016,-1.1015,0,-1.0885,-1.0916,-1.0945,-1.0951,-1.0963,-1.0976,-1.0982,-1.0991,-1.1002,-1.1015,-1.1022,-1.1039,-1.1048,-1.106,-1.1058,-1.1043,-1.1091,-1.1069,-1.1091,-1.1091,-1.1102,-1.1102,-1.1167,-1.1108,-1.1108,-1.1108,-1.1108,0,-1.094,-1.0966,-1.0964,-1.0982,-1.101,-1.1005,-1.1034,-1.1037,-1.1046,-1.1063,-1.1053,-1.107,-1.1066,-1.1083,-1.1081,-1.1108,-1.1112,-1.1112,-1.1112,-1.1113,-1.1113,-1.1119,-1.1116,-1.111,-1.111,-1.1109,-1.1109,0,-1.0993,-1.0992,-1.1023,-1.103,-1.1033,-1.1053,-1.106,-1.1076,-1.1077,-1.1099,-1.1104,-1.1105,-1.1124,-1.1123,-1.1144,-1.1143,-1.1176,-1.1172,-1.1172,-1.1171,-1.1193,-1.1191,-1.1265,-1.1274,-1.1209,-1.121,-1.1211,0,-1.1027,-1.1047,-1.1056,-1.1067,-1.1073,-1.1092,-1.1102,-1.1098,-1.1109,-1.1122,-1.1136,-1.1154,-1.1168,-1.1198,-1.1201,-1.1217,-1.1213,-1.1237,-1.1215,-1.1216,-1.1212,-1.1211,-1.1213,-1.1242,-1.1243,-1.1243,-1.1244,0,-1.1089,-1.1087,-1.1103,-1.1118,-1.1131,-1.1143,-1.1154,-1.1163,-1.1159,-1.1173,-1.1191,-1.1202,-1.1223,-1.1241,-1.1255,-1.126,-1.1251,-1.1251,-1.1256,-1.1258,-1.1258,-1.1258,-1.1184,-1.1249,-1.1249,-1.1248,-1.1248,-1.1248,-1.1134,-1.115,-1.1159,-1.1176,-1.1183,-1.1193,-1.1208,-1.1211,-1.1226,-1.1243,-1.1239,-1.126,-1.1268,-1.1287,-1.1293,-1.1309,-1.13,-1.1309,-1.1311,-1.1313,-1.1315,-1.1255,-1.1312,-1.1312,-1.1312,-1.1312,-1.1311,0,-1.1194,-1.1198,-1.1214,-1.1229,-1.1243,-1.1232,-1.1243,-1.1255,-1.1273,-1.1282,-1.1296,-1.1316,-1.1333,-1.1336,-1.1352,-1.1363,-1.136,-1.1368,-1.1367,-1.1368,-1.1323,-1.1316,-1.137,-1.137,-1.137,-1.137,-1.137,-1.137,-1.1227,-1.1254,-1.1253,-1.1283,-1.1287,-1.1307,-1.1314,-1.1323,-1.1329,-1.1353,-1.1366,-1.1368,-1.1374,-1.139,-1.1404,-1.1404,-1.141,-1.142,-1.1419,-1.1377,-1.1371,-1.1365,-1.1359,-1.1421,-1.1421,-1.1462,-1.1463,-1.1463]},{"header":{"parameterUnit":"m.s-1","parameterCategory":1,"la1":30.2991,"la2":30.254,"lo1":-89.0895,"lo2":-89.0444,"dy":0.0017,"dx":0.0017,"nx":28,"ny":28,"refTime":"2023-10-07T03:00:00:Z","depth":0,"parameterNumber":3,"parameterNumberName":"V-component_of_WINDS"},"data":[0,0,0,0,0,0,0,0,0,0,0,0,0,0,0,0,0,0,0,0,0,0,0,0,0,0,0,0,0,0,0,0,0,0,0,0,0,0,0,0,0,0,0,0,0,0,0,0,0,0,0,0,0,0,0,0,0,0,-7.1261,-7.1262,0,-7.1373,-7.1375,-7.1376,-7.1289,-7.1285,-7.1281,-7.1278,-7.1385,-7.1391,-7.1398,0,0,0,0,0,0,0,0,0,0,0,0,0,-7.0962,-7.0968,-7.126,-7.1262,-7.1263,-7.1373,-7.1375,-7.1376,-7.1289,-7.1285,-7.128,-7.1276,-7.1383,-7.1391,-7.1398,0,0,0,0,0,0,0,0,0,0,0,0,0,-7.1084,-7.097,-7.126,-7.1233,-7.1232,-7.1373,-7.1375,-7.1377,-7.129,-7.1285,-7.1279,-7.1274,-7.1381,-7.139,-7.1399,-7.157,0,0,-7.1428,-7.1432,0,0,0,0,0,0,0,0,-7.1078,-7.1095,-7.1236,-7.1236,-7.1234,-7.1311,-7.1309,-7.1441,-7.1292,-7.1268,-7.1278,-7.1271,-7.1365,-7.1375,-7.1408,-7.1575,-7.158,-7.1429,-7.1435,-7.1439,-7.1442,0,0,0,0,0,0,0,-7.1069,-7.109,-7.1305,-7.1238,-7.1237,-7.1213,-7.1224,-7.1333,-7.1346,-7.127,-7.1264,-7.1279,-7.1363,-7.1399,-7.141,-7.1581,-7.1429,-7.1437,-7.1443,-7.1447,-7.1892,-7.1898,0,0,0,0,0,0,-7.1064,-7.1084,-7.1301,-7.1308,-7.1141,-7.1223,-7.1236,-7.1292,-7.1345,-7.1347,-7.1283,-7.1274,-7.1386,-7.1399,-7.1414,-7.1616,-7.1439,-7.1448,-7.1453,-7.1886,-7.1893,-7.19,0,0,0,0,0,0,-7.1058,-7.1085,-7.1297,-7.1194,-7.122,-7.1234,-7.1298,-7.1297,-7.1334,-7.1355,-7.1356,-7.1319,-7.1382,-7.14,-7.1532,-7.1619,-7.1452,-7.1461,-7.1879,-7.1888,-7.1897,-7.2023,0,0,0,0,0,0,-7.105,-7.1083,-7.115,-7.1197,-7.1226,-7.1416,-7.1304,-7.1304,-7.1351,-7.134,-7.1389,-7.1391,-7.1379,-7.1518,-7.1541,-7.1629,-7.1468,-7.1871,-7.1883,-7.1894,-7.2011,-7.2035,-7.2056,0,0,0,0,0,-7.104,-7.1179,-7.1154,-7.1181,-7.131,-7.1421,-7.1437,-7.1423,-7.1359,-7.1425,-7.1438,-7.1389,-7.1606,-7.1533,-7.1558,-7.1649,-7.1865,-7.1879,-7.1893,-7.2001,-7.2031,-7.2056,0,0,0,0,0,0,-7.1139,-7.1185,-7.1157,-7.1317,-7.1366,-7.1406,-7.1489,-7.1455,-7.1521,-7.1508,-7.1485,-7.1497,-7.1635,-7.1655,-7.1573,-7.1816,-7.1725,-7.1744,-7.1798,-7.1827,-7.1849,-7.184,-7.1476,0,0,0,0,0,-7.1181,-7.127,-7.1304,-7.1441,-7.1468,-7.1475,-7.1522,-7.1508,-7.1556,-7.1576,-7.1599,-7.1647,-7.1725,-7.1777,-7.185,-7.2014,-7.2022,-7.2089,-7.2111,-7.213,-7.2146,-7.2233,-7.2263,-7.1945,-7.1945,-7.1945,0,0,-7.1265,-7.1301,-7.1358,-7.1462,-7.1499,-7.1589,-7.1493,-7.1592,-7.1658,-7.159,-7.1717,-7.1736,-7.1786,-7.1935,-7.2001,-7.1956,-7.2236,-7.2147,-7.2162,-7.2168,-7.225,-7.228,-7.2307,-7.1954,-7.1953,-7.1951,0,0,-7.1466,-7.1503,-7.1621,-7.1661,-7.1718,-7.1722,-7.175,-7.1796,-7.1807,-7.1934,-7.1885,-7.1962,-7.2098,-7.2136,-7.2173,-7.2389,-7.2346,-7.2413,-7.253,-7.2615,-7.264,-7.2662,-7.2738,-7.2765,-7.243,-7.243,-7.2431,0,-7.1563,-7.17,-7.1685,-7.179,-7.1836,-7.1782,-7.19,-7.1937,-7.2015,-7.2047,-7.1995,-7.2165,-7.2195,-7.2351,-7.2404,-7.2437,-7.2467,-7.2407,-7.2638,-7.266,-7.268,-7.2752,-7.2781,-7.2438,-7.2437,-7.2436,-7.2436,0,-7.1816,-7.1912,-7.2,-7.208,-7.2135,-7.2246,-7.2246,-7.2304,-7.2284,-7.2292,-7.2421,-7.2456,-7.2536,-7.2572,-7.2552,-7.2725,-7.2695,-7.2642,-7.2549,-7.2719,-7.2786,-7.2813,-7.2449,-7.2446,-7.2444,-7.2442,0,0,-7.2081,-7.2153,-7.2185,-7.222,-7.228,-7.2352,-7.246,-7.254,-7.2589,-7.2645,-7.2732,-7.2849,-7.28,-7.2843,-7.2827,-7.2902,-7.3069,-7.2839,-7.2839,-7.2879,-7.326,-7.3299,-7.3331,-7.3041,-7.3047,-7.3051,-7.3255,0,-7.2284,-7.2474,-7.2464,-7.2641,-7.2728,-7.2678,-7.2771,-7.2816,-7.2827,-7.29,-7.2911,-7.2994,-7.2924,-7.2949,-7.3021,-7.3034,-7.3145,-7.3019,-7.312,-7.3124,-7.3108,-7.3367,-7.3408,-7.36,-7.3281,-7.3286,-7.3289,0,-7.2546,-7.2613,-7.28,-7.2847,-7.2883,-7.2967,-7.3039,-7.3111,-7.3161,-7.3163,-7.3211,-7.3183,-7.3289,-7.3195,-7.3339,-7.3253,-7.3294,-7.3307,-7.3314,-7.3321,-7.3216,-7.338,-7.366,-7.3689,-7.333,-7.3327,-7.3324,0,-7.272,-7.2857,-7.2986,-7.3017,-7.3076,-7.3136,-7.3162,-7.3207,-7.3255,-7.3318,-7.3349,-7.3422,-7.3462,-7.3518,-7.3509,-7.3442,-7.3655,-7.3561,-7.3658,-7.3659,-7.3704,-7.3701,-7.3994,-7.3733,-7.3733,-7.3732,-7.3732,0,-7.2946,-7.3062,-7.3065,-7.3144,-7.3271,-7.3258,-7.3383,-7.3403,-7.3443,-7.3523,-7.3483,-7.3558,-7.3544,-7.3618,-7.3612,-7.3731,-7.3749,-7.3753,-7.3749,-7.3756,-7.3755,-7.3781,-7.3767,-7.374,-7.3738,-7.3737,-7.3735,0,-7.3161,-7.3168,-7.3306,-7.335,-7.3364,-7.3456,-7.3492,-7.3566,-7.3574,-7.3676,-7.3699,-7.371,-7.3796,-7.3794,-7.3891,-7.3886,-7.4033,-7.4015,-7.4017,-7.4013,-7.411,-7.4101,-7.4428,-7.447,-7.4184,-7.4186,-7.4189,0,-7.3305,-7.3393,-7.3448,-7.3501,-7.3532,-7.3616,-7.3667,-7.3656,-7.371,-7.3773,-7.3839,-7.3922,-7.3987,-7.4126,-7.4141,-7.4215,-7.4197,-7.4307,-7.4207,-7.4211,-7.4197,-7.4192,-7.42,-7.4326,-7.4329,-7.4332,-7.4334,0,-7.3559,-7.3558,-7.3634,-7.3712,-7.3774,-7.3833,-7.3888,-7.3932,-7.3927,-7.3989,-7.4078,-7.4129,-7.4229,-7.4311,-7.4382,-7.4405,-7.4369,-7.4365,-7.4392,-7.4398,-7.4396,-7.4397,-7.4069,-7.4357,-7.4355,-7.4353,-7.4352,-7.4351,-7.3742,-7.3818,-7.3869,-7.3954,-7.3995,-7.4047,-7.4119,-7.4137,-7.4212,-7.4294,-7.4283,-7.4382,-7.4427,-7.4519,-7.455,-7.4625,-7.4586,-7.4624,-7.4633,-7.4643,-7.4653,-7.4385,-7.4638,-7.4637,-7.4636,-7.4636,-7.4635,0,-7.3993,-7.4023,-7.4103,-7.4182,-7.4249,-7.4212,-7.427,-7.4327,-7.4416,-7.4463,-7.453,-7.4631,-7.471,-7.4733,-7.4808,-7.4864,-7.4849,-7.4884,-7.4879,-7.4885,-7.4684,-7.4654,-7.4895,-7.4895,-7.4895,-7.4895,-7.4895,-7.4895,-7.4131,-7.4258,-7.4263,-7.4408,-7.4437,-7.4536,-7.4573,-7.462,-7.4658,-7.4774,-7.4841,-7.4856,-7.4892,-7.4971,-7.5041,-7.5045,-7.5074,-7.5116,-7.5114,-7.4925,-7.4899,-7.4874,-7.4845,-7.5123,-7.5123,-7.5308,-7.5309,-7.5311]}]]